星链-30548 (STARLINK-30548 )

导读

STARLINK-30548是美国SpaceX公司星链(Starlink)星座中的一颗低轨通信卫星,于2023年10月9日发射入轨。星链星座依托大量低轨卫星组网,该卫星支持Ku/Ka波段通信,配备相控阵天线,可配合激光星间链路实现高速数据传输,为全球用户提供宽带互联网接入服务,单颗卫星可覆盖约百公里范围,助力星链实现全球连续网络覆盖,支撑地面终端及手机直连等业务开展。

基本信息
目录编号:
58046
目录名称:
STARLINK-30548
国际标识:
2023-156U
轨道中心:
EARTH
卫星名称:
星链-30548
卫星全名:
星链-30548 (STARLINK-30548 )
卫星状态:
在轨 (已飞行985 天)
发射日期:
2023-10-09 UTC
国别 :
美国 (US)
星等 :
--
轨道信息
数据来源 国际轨道数据
星历时间: 2026-06-19T17:59:09+0800
1天前
查看轨道信息
半长轴: 6840.828km
偏心率: 0.0001126
轨道倾角: 53.161°
近地点辐角 82.040°
升交点赤经 54.544°
平近点角 278.073°
近地点: 461.92km
远地点: 463.462km
周期: 93.847分钟
每日圈数: 15.344044
详细信息
固有亮度:
5
最大亮度:
0.3
卫星平台:
Starlink v2.0 mini
覆盖范围:
全球
运营商:
太空探索技术公司
运营商所在国:
美国
制造商(研发单位):
太空探索技术公司
制造商所在国:
美国
使用方式:
暂无
卫星简介
星链(Starlink)计划是由太空探索技术公司(SpaceX)提出的一个巨型低轨卫星互联网星座项目,计划在2019年至2024年间在太空搭建由约1.2万颗卫星组成的“星链”网络,其中1584颗将部署在地球上空550千米处的近地轨道,并从2020年开始工作。该卫星仍在工作。
2D轨道图
3D轨道图
轨道高度分析图
轨道倾角分析图
轨道综合分析图
查看轨道综合分析图